Flag for Germany Weather past 2 weeks in Dietzenbach, Hesse, Germany

Now
28 °F

Passing clouds.


Feels Like: 22 °F
Forecast: 16 / 37 °F
Wind: 5 mph from North

Location: Frankfurt / M-Flughafen

Current Time: Dec 28, 2014 at 6:19:08 PM

Latest Report: Dec 28, 2014 at 5:00 PM


Visibility: 25 mi

Pressure: 30.37 "Hg

Humidity: 57%

Dew point: 14 °F

Location of DietzenbachLocation

Historic Weather in Dietzenbach — Graph

°F

Dietzenbach temperature yesterday

Maximum temperature yesterday: 35 °F (at 5:00 AM)
Minimum temperature yesterday: 30 °F (at 9:00 PM)
Average temperature yesterday: 32 °F

Past Weeks' High & Low Weather Summary

 TemperatureHumidityPressure
High57 °F (Dec 18, 9:00 PM)100% (Dec 15, 3:00 AM)30.49 "Hg (Dec 15, 3:00 AM)
Low23 °F (Dec 28, 10:00 AM)51% (Dec 28, 3:00 PM)29.44 "Hg (Dec 27, 2:00 PM)
Average41 °F87%30.09 "Hg
* Reported Dec 13 5:00 PM — Dec 28 5:00 PM, Dietzenbach, Weather by CustomWeather, © 2014

Note: Actual official high and low records may vary slightly from our data, if they occured in-between our weather recording intervals... More about our weather records

Advertising

Dietzenbach weather history for previous 24 hours

 ConditionsComfort  
Time TempWeatherWind HumidityBarometerVisibility
5:00 PM
Dec 28
28 °FPassing clouds.5 mph57%30.37 "Hg25 mi
4:00 PM28 °FPassing clouds.7 mph54%30.32 "Hg28 mi
3:00 PM28 °FPassing clouds.8 mph51%30.28 "Hg28 mi
2:00 PM27 °FPassing clouds.8 mph52%30.26 "Hg25 mi
1:00 PM26 °FPassing clouds.9 mph53%30.22 "Hg47 mi
12:00 PM25 °FPassing clouds.7 mph57%30.19 "Hg19 mi
11:00 AM24 °FPassing clouds.7 mph62%30.16 "Hg19 mi
10:00 AM23 °FScattered clouds.10 mph69%30.10 "Hg19 mi
9:00 AM24 °FScattered clouds.10 mph72%30.04 "Hg11 mi
8:00 AM25 °FPassing clouds.9 mph74%29.97 "Hg47 mi
7:00 AM26 °FPassing clouds.7 mph75%29.92 "Hg12 mi
6:00 AM27 °FOvercast.8 mph76%29.87 "Hg12 mi
5:00 AM28 °FPassing clouds.8 mph75%29.83 "Hg9 mi
3:00 AM28 °FLight snow. Overcast.7 mph81%29.73 "Hg4 mi
2:00 AM28 °FLight snow. Overcast.8 mph85%29.69 "Hg3 mi
1:00 AM28 °FLight snow. Low clouds.8 mph91%29.65 "Hg3 mi
12:00 AM31 °FLight snow. Overcast.5 mph84%29.63 "Hg12 mi
11:00 PM
Dec 27
31 °FChilly.7 mph82%29.59 "HgN/A
9:00 PM30 °FLight snow. Low clouds.6 mph96%29.54 "Hg3 mi
8:00 PM31 °FLight snow. Low clouds.5 mph95%29.50 "Hg4 mi
7:00 PM31 °FLight snow. Low clouds.5 mph96%29.47 "Hg2 mi
6:00 PM31 °FLight snow. Low clouds.5 mph97%29.44 "Hg2 mi
Weather by CustomWeather, © 2014

See weather overviewHow to use our weather pages